Temp
63 63 62 62 62 62 62 62 62 62 62 62 62 62 62 61 60 66 63 71 70 70 70 75 75 73 70 66 69 67 54 50 55 59 64 71 70 72 75 72 74 77 76 78 76
63 63 63 63 62 61 61 61 61 61 62 62 62 62 61 60 60 61 70 70 69 70 74 72 71 71 65 64 66 61 52 56 66 64 66 70 64 70 71 69 70 73 77 76 75
63 63 63 63 62 61 61 61 60 61 61 61 61 61 60 60 60 65 69 68 69 71 74 75 74 69 63 63 64 59 57 64 69 70 69 67 68 69 66 64 71 71 73 77 72
61 62 62 62 62 61 60 60 60 61 61 61 62 62 60 61 53 68 70 70 71 73 73 71 69 62 61 61 62 56 65 66 68 70 67 67 70 68 68 70 75 74 76 75 75
59 59 62 62 62 61 60 60 60 61 61 61 62 62 60 55 59 73 70 70 73 74 72 70 66 64 59 61 62 61 63 67 69 70 69 70 65 66 69 73 75 75 76 74 72
57 58 59 61 62 61 60 59 59 59 60 61 61 61 56 48 73 75 73 72 73 70 69 68 67 68 64 63 60 65 66 65 68 67 66 66 65 64 71 74 73 74 72 72 74
58 58 57 60 61 60 60 59 59 59 60 60 61 61 54 56 70 68 71 69 72 72 68 72 71 65 65 61 66 66 60 62 64 64 63 65 59 63 71 73 71 71 71 72 70
58 57 57 57 58 59 59 58 58 59 59 60 61 57 48 69 70 69 71 69 73 73 72 73 73 66 62 65 63 59 57 50 61 66 67 63 54 67 70 66 68 67 70 63 64
57 57 57 56 56 57 58 57 58 59 59 60 54 52 48 68 62 69 70 70 72 72 71 78 69 62 62 54 50 53 47 51 56 65 64 61 55 66 70 68 69 66 65 61 61
57 57 57 56 56 56 56 57 58 58 59 62 61 50 56 57 67 70 72 71 68 67 65 64 59 52 51 49 43 46 46 48 52 61 59 57 57 62 65 66 67 65 59 59 60
56 56 56 56 56 55 55 55 50 48 52 49 50 53 62 67 72 68 71 67 67 61 52 58 49 44 50 56 57 54 51 48 53 61 56 55 54 59 63 58 61 56 59 58 60
55 55 55 56 56 55 56 51 55 56 45 55 55 56 64 68 58 66 72 61 58 51 58 51 47 56 59 59 55 54 50 49 54 61 58 55 53 57 61 61 60 58 59 59 59
54 54 55 53 55 54 54 53 64 61 48 51 53 53 57 61 54 58 67 62 57 52 54 50 53 60 57 55 53 52 50 51 52 57 55 51 52 53 59 58 59 59 60 59 59
54 54 53 53 51 54 52 58 59 59 38 46 46 52 57 59 53 65 69 64 56 52 54 53 60 57 54 52 55 48 59 58 56 51 43 54 42 50 54 54 56 56 54 53 56
53 53 53 53 51 50 56 58 56 51 24 48 50 63 59 53 59 58 68 65 54 54 54 50 53 53 52 54 59 53 61 58 56 48 44 46 42 48 61 49 52 51 53 53 55
53 53 53 50 50 55 59 57 52 34 24 41 53 47 48 51 56 61 61 66 64 57 57 55 61 58 57 61 62 62 57 55 52 47 39 45 46 47 54 57 53 53 54 54 54
53 53 50 51 45 54 56 50 34 28 41 39 46 48 48 46 50 56 54 51 50 44 45 53 54 61 63 57 60 58 51 37 32 34 35 51 48 51 55 59 57 54 52 53 53
52 52 48 47 50 51 51 42 28 34 35 51 50 48 44 50 49 54 52 48 55 54 48 43 40 54 61 58 54 53 54 39 31 30 37 52 42 46 55 59 57 55 53 53 52
51 42 43 46 49 48 39 32 33 35 44 45 49 42 43 49 49 52 51 49 53 55 46 44 45 58 62 63 61 51 47 56 44 42 34 41 44 51 52 51 52 52 52 50 51
41 41 41 48 49 44 35 31 33 45 50 50 41 45 40 45 46 48 48 54 53 57 60 50 40 56 59 62 62 58 58 43 37 29 29 37 41 38 44 45 49 48 49 51 52
41 35 40 48 47 37 29 32 34 45 50 47 44 45 46 45 48 46 49 54 57 56 58 52 45 44 54 52 51 49 48 47 44 35 28 27 34 45 44 46 47 49 52 51 50
38 30 41 46 33 32 30 34 41 43 48 48 50 48 46 48 46 44 47 53 60 59 49 54 44 39 46 48 49 55 49 46 36 28 33 30 30 46 47 49 51 53 55 51 49
34 33 43 44 27 29 33 33 37 41 44 43 42 48 49 46 42 47 49 53 55 57 52 53 41 36 36 43 45 43 50 50 36 33 29 33 30 47 50 50 53 52 53 49 49
34 28 34 36 36 32 31 32 32 42 45 48 44 46 46 40 44 40 47 46 47 52 57 57 43 40 37 39 44 37 44 49 44 37 32 38 34 42 46 48 50 51 49 49 49
33 31 33 27 30 33 34 35 33 34 41 49 43 43 45 35 36 40 47 43 45 46 50 52 41 40 38 42 45 47 45 46 43 46 38 43 41 45 47 49 50 48 49 48 47
32 32 37 34 35 32 33 32 34 36 37 39 40 43 45 41 41 36 41 41 40 42 40 40 35 35 34 36 38 39 46 44 45 46 46 42 39 50 51 51 48 49 48 46 46
36 40 36 35 33 31 31 34 35 40 38 44 44 42 41 44 46 44 44 42 43 40 35 37 33 33 28 33 32 30 37 43 45 45 43 37 42 49 47 47 46 45 46 44 45
MSLP
1014.57 1014.53 1014.62 1015.15 1015.38 1015.58 1015.90 1015.96 1016.18 1016.39 1016.43 1016.33 1016.41 1016.29 1016.11 1015.79 1015.02 1014.39 1013.69 1011.73 1011.39 1011.16 1011.24 1011.15 1011.16 1011.13 1011.32 1011.52 1011.21 1011.52 1012.47 1012.55 1011.58 1010.48 1009.20 1008.32 1008.11 1007.43 1007.01 1007.07 1006.98 1007.07 1007.26 1007.43 1007.77
1013.98 1014.18 1014.11 1014.54 1014.63 1014.90 1015.43 1015.64 1015.82 1015.96 1016.16 1016.17 1016.11 1016.18 1015.98 1015.74 1015.21 1013.63 1011.11 1010.72 1010.83 1010.97 1011.19 1011.08 1011.03 1011.17 1011.40 1011.12 1011.16 1011.46 1011.87 1011.43 1010.28 1009.64 1008.98 1008.15 1008.01 1007.66 1007.59 1007.42 1007.27 1007.14 1007.05 1007.61 1007.85
1013.36 1013.53 1013.78 1013.75 1014.14 1014.16 1014.63 1015.25 1015.42 1015.63 1015.79 1015.91 1015.96 1016.02 1015.90 1015.68 1014.91 1011.78 1010.58 1010.25 1010.63 1010.76 1010.95 1010.87 1010.87 1011.25 1011.22 1010.85 1010.85 1010.84 1010.75 1010.32 1009.70 1009.34 1008.96 1008.40 1007.78 1007.31 1007.17 1007.12 1007.14 1007.03 1007.15 1007.09 1007.77
1013.26 1012.89 1013.15 1013.21 1013.29 1013.71 1013.80 1014.54 1015.03 1015.24 1015.39 1015.68 1015.85 1015.80 1015.77 1015.59 1013.95 1010.69 1010.55 1010.50 1010.62 1010.79 1010.95 1010.77 1010.81 1011.11 1011.00 1010.81 1010.49 1010.74 1010.08 1009.99 1009.19 1008.90 1009.03 1008.76 1008.13 1007.66 1007.33 1006.88 1006.46 1006.42 1006.56 1006.75 1006.91
1012.81 1012.95 1012.36 1012.51 1012.79 1013.03 1013.39 1013.68 1014.34 1014.90 1015.07 1015.35 1015.76 1015.76 1015.45 1015.14 1012.58 1010.50 1010.66 1010.64 1010.67 1010.72 1010.61 1010.53 1010.62 1010.75 1010.86 1010.62 1010.60 1010.46 1009.99 1009.61 1009.16 1008.68 1008.58 1008.25 1008.13 1007.96 1007.32 1006.59 1006.22 1006.15 1006.30 1006.42 1006.68
1012.22 1012.43 1012.20 1011.93 1012.04 1012.27 1012.63 1013.30 1013.65 1014.28 1014.85 1015.14 1015.45 1015.88 1015.59 1013.98 1011.15 1010.38 1010.53 1010.69 1010.61 1010.60 1010.44 1010.41 1010.38 1010.51 1010.70 1010.60 1010.67 1010.18 1009.85 1009.60 1009.12 1008.59 1008.43 1008.13 1007.91 1007.69 1006.91 1006.42 1006.39 1006.27 1006.08 1006.28 1006.45
1011.76 1011.68 1011.94 1011.34 1011.28 1011.48 1012.02 1012.82 1013.34 1013.71 1014.47 1014.97 1015.26 1015.51 1014.88 1011.67 1010.58 1010.40 1010.80 1010.59 1010.36 1010.43 1010.45 1010.30 1010.27 1010.57 1010.65 1010.61 1010.53 1010.39 1010.52 1010.04 1009.19 1008.58 1008.27 1008.03 1007.95 1007.13 1006.35 1006.31 1006.63 1006.20 1006.14 1006.38 1006.90
1011.20 1011.09 1011.02 1011.18 1011.27 1010.70 1011.37 1012.26 1012.94 1013.53 1014.10 1014.74 1015.20 1015.27 1013.34 1011.25 1010.57 1010.76 1010.34 1010.68 1010.21 1010.29 1010.28 1010.22 1010.32 1010.47 1010.82 1010.88 1010.90 1011.02 1010.86 1010.49 1008.93 1008.27 1007.70 1008.31 1007.84 1006.50 1006.02 1006.48 1006.68 1006.46 1006.51 1007.86 1008.03
1010.67 1010.26 1010.41 1010.20 1011.23 1010.69 1010.91 1011.58 1012.38 1013.44 1013.88 1014.67 1015.22 1014.93 1012.34 1010.15 1009.97 1009.29 1009.84 1010.11 1009.99 1009.90 1010.04 1010.08 1010.26 1010.72 1011.13 1011.50 1011.90 1011.69 1011.29 1010.77 1009.68 1008.01 1008.07 1008.03 1007.72 1006.28 1005.78 1006.51 1006.69 1006.82 1007.88 1008.54 1008.98
1010.28 1010.00 1009.60 1009.57 1010.36 1010.39 1010.17 1011.22 1012.39 1013.61 1014.03 1014.47 1014.34 1014.63 1011.36 1009.29 1008.38 1007.89 1008.58 1009.67 1009.97 1010.05 1010.37 1010.46 1010.70 1011.13 1011.48 1011.94 1011.54 1011.41 1011.44 1010.64 1009.88 1008.47 1008.06 1007.92 1007.84 1006.89 1006.34 1006.41 1006.78 1007.15 1008.46 1009.21 1009.69
1009.90 1009.59 1009.40 1008.92 1009.75 1009.53 1009.89 1010.12 1012.86 1013.16 1012.22 1010.66 1010.84 1009.83 1008.18 1007.40 1007.38 1007.10 1007.70 1009.04 1009.89 1009.99 1010.13 1010.30 1010.95 1010.49 1010.66 1010.40 1010.42 1010.81 1010.76 1010.31 1009.34 1008.40 1008.44 1008.22 1007.99 1007.40 1006.69 1006.85 1007.33 1008.20 1008.61 1009.34 1009.88
1009.58 1009.35 1009.03 1008.69 1008.64 1009.18 1008.62 1008.43 1008.13 1008.21 1010.53 1010.53 1010.31 1009.91 1007.94 1007.43 1007.93 1006.48 1006.92 1008.13 1008.96 1009.04 1009.81 1010.40 1008.86 1009.58 1009.68 1010.26 1010.50 1010.55 1010.48 1009.92 1009.21 1008.32 1008.34 1007.82 1007.73 1007.35 1006.86 1006.78 1007.15 1007.96 1008.84 1009.10 1009.66
1009.25 1009.20 1008.87 1008.74 1008.19 1008.56 1007.64 1007.73 1008.82 1008.57 1008.58 1008.28 1008.36 1008.43 1008.13 1008.43 1007.73 1006.31 1006.48 1006.91 1007.28 1008.57 1008.53 1008.26 1007.44 1008.87 1009.49 1009.57 1009.76 1009.55 1009.32 1009.08 1009.18 1008.21 1008.02 1007.73 1007.29 1007.29 1007.13 1007.23 1007.23 1007.92 1008.77 1009.19 1009.52
1008.84 1008.84 1008.56 1008.55 1008.30 1007.16 1006.60 1007.25 1008.68 1009.28 1008.15 1006.47 1007.34 1006.01 1007.10 1007.34 1006.00 1005.95 1005.60 1006.32 1007.01 1007.40 1008.22 1007.88 1007.77 1007.89 1008.15 1007.98 1008.56 1008.45 1007.80 1008.39 1008.63 1008.70 1008.49 1007.73 1007.03 1007.26 1007.41 1007.97 1008.20 1008.60 1009.51 1009.98 1010.03
1008.30 1008.30 1008.13 1008.19 1006.60 1006.02 1005.70 1006.97 1008.37 1009.50 1006.69 1004.74 1003.92 1003.37 1004.14 1005.61 1003.81 1004.17 1004.98 1005.33 1005.53 1006.20 1007.27 1005.32 1005.84 1006.46 1006.66 1006.26 1007.12 1006.72 1006.81 1007.47 1008.13 1008.55 1008.66 1008.39 1008.20 1006.40 1006.91 1008.27 1008.93 1009.47 1009.96 1010.32 1010.54
1007.72 1007.70 1007.63 1007.15 1006.38 1005.10 1005.16 1006.50 1007.59 1007.21 1004.30 1003.16 1001.64 1002.08 1003.79 1003.50 1003.14 1003.48 1004.11 1004.69 1004.62 1005.35 1005.14 1005.05 1004.75 1005.32 1004.79 1005.29 1005.86 1005.97 1006.73 1007.40 1007.97 1008.79 1008.51 1008.71 1008.46 1005.48 1006.35 1006.43 1008.66 1009.64 1010.23 1010.39 1010.62
1007.09 1007.02 1007.09 1006.96 1005.55 1005.07 1004.82 1005.61 1005.13 1003.14 1004.26 1002.38 1000.66 1000.69 1000.74 1002.21 1003.33 1002.52 1002.96 1003.53 1002.72 1004.28 1004.08 1004.94 1004.51 1004.20 1003.88 1004.50 1005.25 1005.39 1006.31 1008.12 1009.28 1009.72 1008.43 1008.34 1008.20 1005.30 1005.43 1005.61 1007.37 1008.91 1010.05 1010.47 1010.73
1006.44 1006.31 1005.95 1005.80 1005.28 1005.46 1004.44 1003.83 1001.95 1001.27 1001.17 999.58 999.88 1000.17 1000.40 1000.96 1001.70 1001.34 1001.86 1002.45 1002.39 1002.04 1003.06 1003.56 1003.62 1002.95 1002.80 1002.94 1004.05 1005.08 1005.43 1007.19 1008.69 1009.80 1008.89 1008.11 1007.08 1006.17 1005.52 1006.07 1007.87 1009.22 1010.23 1010.68 1010.86
1005.79 1005.82 1005.40 1004.37 1004.75 1005.35 1005.29 1001.70 1000.59 999.74 999.21 999.66 999.15 999.47 1000.00 999.83 999.91 1000.74 999.96 999.20 999.86 1000.25 1001.63 1002.68 1002.24 1001.65 1001.95 1002.67 1003.52 1004.32 1004.59 1005.54 1007.61 1009.41 1010.25 1008.61 1008.20 1007.99 1007.56 1008.00 1008.96 1009.74 1010.33 1010.64 1010.73
1005.43 1005.11 1003.78 1003.69 1004.23 1004.58 1003.78 1002.22 1000.21 999.20 998.69 999.04 998.33 998.32 998.34 998.67 999.27 998.92 998.91 998.04 998.73 999.42 1000.73 1001.41 1001.85 1001.42 1001.55 1002.52 1002.73 1003.01 1004.41 1006.27 1008.99 1010.32 1010.48 1008.97 1008.38 1007.87 1008.69 1008.94 1009.34 1009.86 1010.09 1010.38 1010.61
1005.06 1004.36 1002.40 1002.51 1004.07 1004.19 1001.97 1000.89 1000.64 999.11 998.09 997.68 997.52 997.49 997.82 997.52 998.20 997.91 996.79 997.68 998.34 999.12 1000.54 1000.87 1001.34 1002.13 1001.56 1001.79 1001.66 1003.24 1004.29 1005.65 1007.94 1009.11 1009.57 1009.63 1007.85 1006.63 1008.01 1008.53 1008.86 1009.32 1009.56 1009.91 1010.56
1004.18 1003.28 1002.39 1002.42 1003.30 1002.71 1002.24 1001.30 1000.35 998.91 997.88 997.40 996.94 997.07 997.14 997.28 997.86 997.87 996.67 996.78 996.93 998.12 999.48 999.35 1001.37 1001.95 1001.86 1002.43 1002.50 1002.38 1002.85 1004.25 1006.49 1008.04 1008.63 1008.97 1008.06 1007.53 1007.79 1008.31 1008.50 1008.85 1009.32 1010.06 1010.77
1002.78 1002.59 1002.05 1001.79 1001.72 1001.69 1001.48 1000.69 1000.01 999.00 997.35 997.22 996.58 996.45 996.61 997.54 998.07 997.49 997.57 997.26 997.11 997.41 997.79 999.94 1000.97 1003.03 1003.19 1003.18 1003.01 1002.70 1003.01 1003.48 1004.86 1006.81 1007.47 1008.64 1007.78 1007.80 1007.96 1008.25 1008.55 1008.90 1009.41 1010.26 1010.76
1001.92 1001.41 1001.34 1001.37 1000.90 1000.79 1000.76 1000.27 999.39 998.36 996.98 996.46 995.99 996.39 997.24 998.21 998.08 997.90 997.96 998.28 998.14 998.11 998.08 999.05 1000.19 1001.16 1001.08 1001.52 1001.72 1002.77 1002.57 1002.81 1004.04 1005.43 1005.88 1005.75 1006.96 1007.65 1007.87 1008.21 1008.68 1008.79 1009.33 1009.97 1010.57
1000.28 999.00 998.81 999.16 999.30 999.40 999.54 998.77 998.79 997.51 996.86 995.70 996.25 996.58 996.77 998.47 998.77 998.56 998.48 999.00 999.28 999.30 998.69 999.11 1000.32 1002.15 1002.74 1002.59 1002.02 1001.59 1001.86 1002.17 1002.50 1001.97 1004.18 1004.13 1005.69 1006.37 1007.34 1008.01 1008.33 1009.01 1009.77 1010.21 1010.61
998.69 997.88 997.74 996.76 997.11 998.12 998.21 997.03 996.76 996.82 996.02 994.82 995.04 996.23 997.01 997.07 997.70 998.80 999.04 999.59 999.87 1000.53 1000.17 1000.67 1001.12 1002.73 1003.71 1003.93 1003.34 1002.46 1002.05 1002.22 1002.06 1002.56 1003.20 1003.97 1005.28 1005.84 1006.86 1007.74 1008.53 1009.10 1009.62 1010.41 1010.79
997.37 996.66 996.40 995.74 996.57 997.03 996.14 995.62 995.51 995.71 995.81 994.74 994.89 996.31 996.86 996.75 997.85 998.87 999.39 1000.25 999.99 1000.53 1001.41 1001.64 1002.79 1003.93 1004.66 1004.99 1004.59 1003.78 1000.96 1001.15 1001.40 1002.01 1002.97 1003.62 1004.62 1005.55 1006.49 1007.82 1008.62 1009.26 1009.68 1010.07 1010.20
Wind_Speed
17 17 16 16 14 13 13 11 11 10 10 9 9 9 10 12 14 4 7 12 8 7 3 4 3 4 2 4 4 4 2 4 5 4 5 2 2 2 1 3 3 4 3 5 12
19 19 18 18 17 15 14 12 11 10 10 9 8 9 10 11 4 10 12 11 11 8 4 3 6 3 3 4 2 5 4 9 8 4 8 7 3 5 4 2 2 5 5 7 12
21 20 20 19 17 17 15 13 12 11 11 10 8 8 9 8 5 8 4 8 8 7 4 2 3 2 4 3 6 4 7 4 12 9 7 8 11 2 2 3 6 6 5 4 12
16 21 21 20 19 18 17 15 13 12 11 9 8 6 8 2 7 1 2 4 4 4 3 4 4 3 3 5 2 2 7 5 6 3 3 6 7 8 3 7 7 7 7 4 8
13 17 21 21 21 20 17 17 15 13 11 9 7 3 1 4 10 4 3 2 2 3 4 3 1 3 4 3 3 5 5 5 7 10 6 5 5 6 9 9 9 9 8 10 6
18 14 19 22 21 20 18 17 16 13 11 9 6 1 3 10 7 9 7 4 5 3 3 3 4 3 5 5 4 4 6 8 8 9 6 7 5 4 8 9 11 9 12 6 10
17 16 11 20 22 20 19 17 16 14 11 9 7 3 6 17 4 4 5 3 3 4 4 4 3 2 2 3 3 5 5 7 8 5 7 3 6 8 11 8 10 14 6 8 2
20 19 15 14 18 21 20 17 15 14 12 9 7 3 10 7 16 15 15 10 7 7 4 6 3 1 1 3 6 4 1 4 4 5 8 6 11 22 11 4 10 3 8 9 9
15 20 16 12 16 15 19 18 15 13 11 10 4 3 11 6 11 17 8 13 6 5 4 5 2 4 2 3 4 1 5 5 10 4 6 7 8 13 9 8 10 6 9 9 8
14 15 19 17 13 22 19 18 14 11 7 6 5 1 8 8 11 8 13 10 5 3 4 5 3 4 3 4 9 7 6 5 8 3 4 6 8 7 6 6 10 9 11 8 8
15 12 16 16 14 14 17 14 10 8 14 12 10 6 8 18 3 8 10 13 8 6 10 8 7 12 14 20 13 5 5 5 7 11 4 8 7 11 8 3 8 2 12 10 9
12 14 15 17 14 15 17 9 25 9 9 25 16 24 23 2 7 7 16 12 14 17 12 5 22 17 18 13 12 13 12 15 10 11 6 8 8 10 8 5 6 12 14 14 9
14 15 15 20 18 12 19 25 14 5 5 16 32 17 13 10 11 12 18 8 17 15 20 22 7 20 17 15 14 16 15 14 11 7 4 2 9 5 1 5 8 6 9 8 10
15 14 14 16 14 8 20 23 10 5 5 12 15 16 20 2 11 15 13 16 7 20 17 18 21 10 17 22 17 17 15 15 8 5 5 4 10 5 3 6 7 9 7 5 7
15 14 14 12 9 16 14 17 6 2 10 10 19 9 20 24 10 20 14 14 14 14 13 13 18 27 19 18 19 12 8 9 6 3 1 3 5 5 11 7 7 6 8 8 8
14 15 12 8 5 11 14 18 7 9 10 7 16 21 20 25 13 12 20 12 7 11 20 17 10 17 12 19 18 8 4 2 2 3 11 6 6 10 12 11 12 7 8 8 7
15 15 10 4 5 4 16 13 12 11 8 10 13 25 29 17 24 14 27 23 17 15 20 12 26 14 4 13 8 7 8 2 4 2 9 10 14 18 4 4 18 15 9 7 6
15 14 8 7 7 2 8 14 17 10 12 6 13 25 25 17 24 19 28 23 27 23 13 19 12 25 14 17 6 7 13 9 8 6 5 10 9 4 1 17 15 10 8 6 6
14 3 6 8 11 3 6 21 17 10 17 6 14 25 20 16 15 21 29 35 31 31 17 17 20 4 20 19 15 7 15 10 6 5 1 5 3 5 9 14 13 10 7 6 5
2 5 12 4 7 6 8 14 7 10 9 12 14 21 25 25 15 23 26 25 26 31 19 6 1 10 17 11 21 23 8 5 5 7 8 5 7 8 9 9 8 8 8 6 5
2 5 4 12 8 6 8 4 5 16 8 21 12 15 19 25 19 24 18 9 32 28 24 6 6 4 10 18 21 9 12 5 10 7 6 3 8 9 15 10 10 8 7 7 7
3 7 4 9 8 3 9 4 5 14 18 10 11 9 13 21 22 20 26 21 20 26 35 29 3 9 11 4 2 21 18 16 10 8 7 4 7 5 11 9 8 7 6 7 8
5 4 4 4 7 10 2 7 7 17 22 10 9 13 3 14 17 21 16 3 9 22 28 21 9 5 8 8 4 8 19 20 6 4 12 12 7 8 8 8 7 7 5 8 7
4 5 6 7 7 10 15 14 8 17 22 20 11 5 11 6 2 11 18 3 1 6 23 25 10 22 22 8 11 9 15 20 17 12 8 14 7 13 8 10 6 4 7 6 5
6 7 6 9 17 21 15 12 14 9 12 27 16 17 22 8 4 16 9 2 4 8 6 19 20 15 2 4 4 14 15 18 24 28 19 15 11 21 10 8 5 11 8 8 7
5 7 6 12 14 23 22 17 19 10 12 24 14 23 17 23 19 6 5 5 6 3 3 1 1 6 5 2 3 3 14 14 17 14 17 9 5 9 9 6 4 7 7 8 6
4 4 4 8 15 19 22 21 24 16 9 17 21 22 20 18 9 5 5 5 5 6 3 6 7 8 6 5 7 5 22 22 17 9 8 14 6 7 6 8 13 10 11 9 7
Wind_Direction
227 220 214 216 217 219 225 226 233 243 253 266 289 306 320 324 313 282 244 224 189 204 165 283 276 281 103 255 193 124 80 225 246 219 249 324 43 258 160 1 326 18 72 283 125
229 228 220 218 210 212 220 223 228 233 248 261 278 302 320 330 300 260 240 231 217 181 212 232 284 332 277 228 239 138 171 220 210 217 268 286 224 190 172 221 271 324 347 124 140
233 228 225 216 214 207 209 219 222 227 236 248 266 298 318 324 308 249 335 212 184 182 245 267 253 195 236 194 204 209 223 242 266 271 274 286 307 253 311 233 199 236 242 265 175
292 229 225 220 212 211 202 207 217 221 227 239 255 294 316 286 252 321 177 136 184 210 221 215 220 212 233 235 208 239 248 220 272 268 306 286 315 332 232 251 258 254 243 259 253
285 288 225 221 216 207 205 199 205 216 218 224 243 297 333 222 240 277 213 208 226 221 220 187 205 191 220 236 348 217 250 266 283 289 297 276 260 247 271 280 292 292 288 264 251
268 288 267 220 216 208 202 203 196 200 211 210 212 244 216 240 258 262 218 188 243 211 256 196 213 201 259 246 187 264 304 305 306 298 288 266 278 329 273 281 296 289 261 224 170
259 255 293 247 216 206 200 198 195 188 196 198 191 206 250 227 225 1 357 258 303 196 233 255 239 156 343 271 2 300 312 315 265 259 263 345 307 265 260 285 272 275 176 182 54
264 249 250 264 269 207 195 187 185 181 181 183 174 203 247 251 242 266 271 269 259 254 211 265 229 123 207 314 4 351 303 291 266 223 257 117 278 270 259 238 224 193 147 88 44
315 251 241 232 258 241 193 176 168 168 161 157 157 204 262 242 226 222 188 220 231 260 270 266 100 170 33 89 3 278 253 239 309 234 226 152 260 268 273 208 240 195 104 98 84
294 303 244 220 243 224 185 153 138 128 163 182 240 167 250 230 216 206 203 213 189 195 263 217 177 148 123 145 222 201 218 226 231 237 147 294 261 272 299 187 225 217 115 115 112
297 301 294 222 226 229 156 130 143 211 201 193 194 235 292 205 331 205 169 179 195 191 197 194 183 198 198 207 203 186 221 224 253 263 304 257 268 285 286 229 250 80 137 135 130
308 308 304 260 219 221 179 194 194 138 193 222 243 218 248 18 320 290 161 168 180 204 187 189 223 203 216 218 218 235 248 258 278 261 227 274 269 261 260 272 222 160 157 148 140
298 304 292 323 210 210 196 197 189 294 200 194 219 221 214 221 230 251 182 174 189 194 203 209 170 206 209 216 217 225 222 240 242 270 245 256 278 279 143 54 76 104 131 123 138
294 297 294 307 231 209 202 186 200 253 254 205 195 237 205 267 247 207 194 166 185 206 200 232 222 205 203 216 205 231 218 238 253 195 234 154 280 282 128 83 85 107 110 124 119
287 290 300 279 304 200 194 170 168 111 225 211 190 163 173 195 118 200 204 193 187 170 184 211 186 207 221 208 206 224 186 189 183 194 170 233 283 245 228 159 175 146 141 145 147
276 286 298 293 234 246 180 157 169 188 227 246 160 170 154 203 204 149 192 218 164 199 221 214 181 193 200 217 212 186 179 77 45 125 253 177 206 245 229 208 169 169 165 153 137
267 281 277 269 249 336 157 164 206 209 147 217 190 170 179 176 200 185 186 194 185 195 216 207 230 241 164 209 186 164 132 46 319 212 256 205 231 239 254 202 165 160 153 142 130
265 273 257 236 256 187 236 199 222 159 184 215 183 167 189 160 198 190 179 193 207 197 187 206 212 211 200 210 182 185 180 176 218 208 241 208 243 260 11 118 121 113 129 135 118
265 258 251 252 230 194 234 209 213 159 196 202 160 166 189 186 166 195 194 198 193 193 192 197 229 178 203 204 176 197 212 190 214 63 321 229 131 34 72 94 111 125 119 121 119
213 257 247 203 167 238 226 231 190 184 176 211 186 182 185 184 180 194 189 209 202 199 195 185 204 194 201 188 212 212 146 131 86 196 228 238 210 178 169 145 142 137 141 141 113
232 250 269 177 146 221 240 260 191 222 199 190 207 185 197 181 199 200 196 204 199 192 202 174 143 249 140 201 198 180 199 178 163 176 171 190 242 184 162 161 146 147 140 142 99
225 235 234 140 190 183 225 204 248 204 217 210 204 182 186 194 201 196 215 207 188 182 196 207 148 208 198 170 258 216 200 180 178 218 216 154 261 133 143 152 146 148 154 115 142
222 229 185 153 205 216 221 226 220 227 208 195 191 217 144 191 204 209 210 184 172 185 190 179 205 232 295 296 177 221 206 197 109 98 199 195 232 182 163 148 141 151 171 149 160
215 222 191 198 234 222 207 235 219 228 217 209 199 101 184 198 270 217 215 123 49 227 202 176 166 210 223 244 156 187 197 203 191 211 158 217 145 183 169 153 170 127 140 161 159
196 218 191 197 208 220 211 185 207 204 239 195 199 201 191 179 206 228 192 117 32 345 157 179 210 203 156 16 289 200 190 191 198 217 202 210 181 182 164 162 153 141 156 146 113
211 196 189 232 198 210 216 207 196 199 178 198 195 196 199 197 201 185 156 173 187 36 118 351 247 140 189 339 360 223 187 191 208 208 228 160 178 171 150 101 114 162 154 134 137
200 235 217 219 207 196 208 212 213 188 236 198 196 189 202 208 184 102 93 50 104 142 131 139 122 160 194 132 102 263 213 199 203 180 197 204 133 151 138 155 173 168 148 148 144